iso_date,epoch_date,Year,Hour,Min,DOY,POS_DOY,Lat,Lon,BP,Ts,Ta,has_bp,has_ts,has_ta,BuoyID,Buoy_Type,Buoy_Owner,Logistics,Hemisphere
2014-03-01T19:00:28Z,1393700429,2014,19,0,60.792,60.792,62.46695,-114.41588,1004.39,-999.00,-999.0,yes,no,no,169312003533407,WB,BAS,APL_Sachs_Harbor,North
2014-03-01T19:59:31Z,1393703971,2014,20,0,60.833,60.833,62.46695,-114.41585,1004.39,-999.00,-999.0,yes,no,no,169312003533407,WB,BAS,APL_Sachs_Harbor,North
2014-03-01T21:00:00Z,1393707600,2014,21,0,60.875,60.875,62.467,-114.41587,1003.05,-999.00,-999.0,yes,no,no,169312003533407,WB,BAS,APL_Sachs_Harbor,North
2014-03-01T22:00:28Z,1393711229,2014,22,0,60.917,60.917,62.46698,-114.41585,999.19,-999.00,-999.0,yes,no,no,169312003533407,WB,BAS,APL_Sachs_Harbor,North
2014-03-01T22:59:31Z,1393714771,2014,23,0,60.958,60.958,62.467,-114.41577,1001.72,-999.00,-999.0,yes,no,no,169312003533407,WB,BAS,APL_Sachs_Harbor,North
2014-03-02T00:01:26Z,1393718486,2014,0,2,61.001,61.001,62.46725,-114.41753,1000.52,-999.00,-999.0,yes,no,no,169312003533407,WB,BAS,APL_Sachs_Harbor,North
2014-03-02T01:01:55Z,1393722115,2014,1,2,61.043,61.043,62.46725,-114.41753,999.18,-999.00,-999.0,yes,no,no,169312003533407,WB,BAS,APL_Sachs_Harbor,North
2014-03-17T01:00:28Z,1395018029,2014,1,0,76.042,76.042,73.47343,-136.14517,999.19,-999.00,-999.0,yes,no,no,169312003533407,WB,BAS,APL_Sachs_Harbor,North
2014-03-17T01:59:31Z,1395021571,2014,2,0,76.083,76.083,73.4724,-136.16045,997.98,-999.00,-999.0,yes,no,no,169312003533407,WB,BAS,APL_Sachs_Harbor,North
2014-03-17T03:00:00Z,1395025200,2014,3,0,76.125,76.125,73.4716,-136.18575,997.98,-999.00,-999.0,yes,no,no,169312003533407,WB,BAS,APL_Sachs_Harbor,North
2014-03-17T04:00:28Z,1395028829,2014,4,0,76.167,76.167,73.47097,-136.20688,997.98,-999.00,-999.0,yes,no,no,169312003533407,WB,BAS,APL_Sachs_Harbor,North
2014-03-17T04:59:31Z,1395032371,2014,5,0,76.208,76.208,73.47078,-136.22822,997.98,-999.00,-999.0,yes,no,no,169312003533407,WB,BAS,APL_Sachs_Harbor,North
2014-03-17T06:00:00Z,1395036000,2014,6,0,76.25,76.25,73.47022,-136.24467,997.98,-999.00,-999.0,yes,no,no,169312003533407,WB,BAS,APL_Sachs_Harbor,North
2014-03-17T07:00:28Z,1395039629,2014,7,0,76.292,76.292,73.47048,-136.2634,997.98,-999.00,-999.0,yes,no,no,169312003533407,WB,BAS,APL_Sachs_Harbor,North
2014-03-17T07:59:31Z,1395043171,2014,8,0,76.333,76.333,73.47,-136.27993,996.65,-999.00,-999.0,yes,no,no,169312003533407,WB,BAS,APL_Sachs_Harbor,North
2014-03-17T09:00:00Z,1395046800,2014,9,0,76.375,76.375,73.46923,-136.29478,996.65,-999.00,-999.0,yes,no,no,169312003533407,WB,BAS,APL_Sachs_Harbor,North
2014-03-17T10:00:28Z,1395050429,2014,10,0,76.417,76.417,73.46855,-136.31047,997.98,-999.00,-999.0,yes,no,no,169312003533407,WB,BAS,APL_Sachs_Harbor,North
2014-03-17T10:59:31Z,1395053971,2014,11,0,76.458,76.458,73.46735,-136.32773,994.12,-999.00,-999.0,yes,no,no,169312003533407,WB,BAS,APL_Sachs_Harbor,North
2014-03-17T12:00:00Z,1395057600,2014,12,0,76.5,76.5,73.46628,-136.34305,1000.51,-999.00,-999.0,yes,no,no,169312003533407,WB,BAS,APL_Sachs_Harbor,North
2014-03-17T13:00:28Z,1395061229,2014,13,0,76.542,76.542,73.46523,-136.3612,999.18,-999.00,-999.0,yes,no,no,169312003533407,WB,BAS,APL_Sachs_Harbor,North
2014-03-17T13:59:31Z,1395064771,2014,14,0,76.583,76.583,73.46438,-136.3794,1000.51,-999.00,-999.0,yes,no,no,169312003533407,WB,BAS,APL_Sachs_Harbor,North
2014-03-17T15:00:00Z,1395068400,2014,15,0,76.625,76.625,73.46288,-136.3977,1000.51,-999.00,-999.0,yes,no,no,169312003533407,WB,BAS,APL_Sachs_Harbor,North
2014-03-17T16:00:28Z,1395072029,2014,16,0,76.667,76.667,73.4628,-136.418,999.18,-999.00,-999.0,yes,no,no,169312003533407,WB,BAS,APL_Sachs_Harbor,North
2014-03-17T16:59:31Z,1395075571,2014,17,0,76.708,76.708,73.46212,-136.44167,1008.13,-999.00,-999.0,yes,no,no,169312003533407,WB,BAS,APL_Sachs_Harbor,North
2014-03-17T18:00:00Z,1395079200,2014,18,0,76.75,76.75,73.46128,-136.45815,996.66,-999.00,-999.0,yes,no,no,169312003533407,WB,BAS,APL_Sachs_Harbor,North
2014-03-17T19:00:28Z,1395082829,2014,19,0,76.792,76.792,73.46112,-136.4777,999.19,-999.00,-999.0,yes,no,no,169312003533407,WB,BAS,APL_Sachs_Harbor,North
2014-03-17T19:59:31Z,1395086371,2014,20,0,76.833,76.833,73.46108,-136.4954,1001.72,-999.00,-999.0,yes,no,no,169312003533407,WB,BAS,APL_Sachs_Harbor,North
2014-03-17T21:00:00Z,1395090000,2014,21,0,76.875,76.875,73.46012,-136.51575,1001.72,-999.00,-999.0,yes,no,no,169312003533407,WB,BAS,APL_Sachs_Harbor,North
2014-03-17T22:00:28Z,1395093629,2014,22,0,76.917,76.917,73.45928,-136.53733,1003.06,-999.00,-999.0,yes,no,no,169312003533407,WB,BAS,APL_Sachs_Harbor,North
2014-03-17T22:59:31Z,1395097171,2014,23,0,76.958,76.958,73.45878,-136.55978,1003.06,-999.00,-999.0,yes,no,no,169312003533407,WB,BAS,APL_Sachs_Harbor,North
2014-03-18T00:00:00Z,1395100800,2014,0,0,77.0,77.0,73.4583,-136.58042,1000.52,-999.00,-999.0,yes,no,no,169312003533407,WB,BAS,APL_Sachs_Harbor,North
2014-03-18T01:00:28Z,1395104429,2014,1,0,77.042,77.042,73.45868,-136.60103,1003.05,-999.00,-999.0,yes,no,no,169312003533407,WB,BAS,APL_Sachs_Harbor,North
2014-03-18T01:59:31Z,1395107971,2014,2,0,77.083,77.083,73.45915,-136.62305,1001.72,-999.00,-999.0,yes,no,no,169312003533407,WB,BAS,APL_Sachs_Harbor,North
2014-03-18T03:00:00Z,1395111600,2014,3,0,77.125,77.125,73.45933,-136.64452,1001.72,-999.00,-999.0,yes,no,no,169312003533407,WB,BAS,APL_Sachs_Harbor,North
2014-03-18T04:01:55Z,1395115315,2014,4,2,77.168,77.168,73.45942,-136.66508,1001.72,-999.00,-999.0,yes,no,no,169312003533407,WB,BAS,APL_Sachs_Harbor,North
2014-03-18T04:59:31Z,1395118771,2014,5,0,77.208,77.208,73.45933,-136.68563,1001.71,-999.00,-999.0,yes,no,no,169312003533407,WB,BAS,APL_Sachs_Harbor,North
2014-03-18T06:00:00Z,1395122400,2014,6,0,77.25,77.25,73.45987,-136.70708,1004.38,-999.00,-999.0,yes,no,no,169312003533407,WB,BAS,APL_Sachs_Harbor,North
2014-03-18T07:00:28Z,1395126029,2014,7,0,77.292,77.292,73.46,-136.72768,1004.38,-999.00,-999.0,yes,no,no,169312003533407,WB,BAS,APL_Sachs_Harbor,North
2014-03-18T07:59:31Z,1395129571,2014,8,0,77.333,77.333,73.46013,-136.75063,1004.38,-999.00,-999.0,yes,no,no,169312003533407,WB,BAS,APL_Sachs_Harbor,North
2014-03-18T09:00:00Z,1395133200,2014,9,0,77.375,77.375,73.46015,-136.76747,1005.58,-999.00,-999.0,yes,no,no,169312003533407,WB,BAS,APL_Sachs_Harbor,North
2014-03-18T10:00:28Z,1395136829,2014,10,0,77.417,77.417,73.46002,-136.78588,1004.38,-999.00,-999.0,yes,no,no,169312003533407,WB,BAS,APL_Sachs_Harbor,North
2014-03-18T10:59:31Z,1395140371,2014,11,0,77.458,77.458,73.46023,-136.80015,1005.58,-999.00,-999.0,yes,no,no,169312003533407,WB,BAS,APL_Sachs_Harbor,North
2014-03-18T12:00:00Z,1395144000,2014,12,0,77.5,77.5,73.4602,-136.82093,1005.58,-999.00,-999.0,yes,no,no,169312003533407,WB,BAS,APL_Sachs_Harbor,North
2014-03-18T13:00:28Z,1395147629,2014,13,0,77.542,77.542,73.46055,-136.84248,1005.58,-999.00,-999.0,yes,no,no,169312003533407,WB,BAS,APL_Sachs_Harbor,North
2014-03-18T13:59:31Z,1395151171,2014,14,0,77.583,77.583,73.4608,-136.85905,1006.91,-999.00,-999.0,yes,no,no,169312003533407,WB,BAS,APL_Sachs_Harbor,North
2014-03-18T15:00:00Z,1395154800,2014,15,0,77.625,77.625,73.4615,-136.8788,1005.58,-999.00,-999.0,yes,no,no,169312003533407,WB,BAS,APL_Sachs_Harbor,North
2014-03-18T16:00:28Z,1395158429,2014,16,0,77.667,77.667,73.46205,-136.89447,1006.92,-999.00,-999.0,yes,no,no,169312003533407,WB,BAS,APL_Sachs_Harbor,North
2014-03-18T16:59:31Z,1395161971,2014,17,0,77.708,77.708,73.46282,-136.91245,1005.6,-999.00,-999.0,yes,no,no,169312003533407,WB,BAS,APL_Sachs_Harbor,North
2014-03-18T18:00:00Z,1395165600,2014,18,0,77.75,77.75,73.4629,-136.92852,1005.59,-999.00,-999.0,yes,no,no,169312003533407,WB,BAS,APL_Sachs_Harbor,North
2014-03-18T19:00:28Z,1395169229,2014,19,0,77.792,77.792,73.46358,-136.9467,1005.59,-999.00,-999.0,yes,no,no,169312003533407,WB,BAS,APL_Sachs_Harbor,North
2014-03-18T19:59:31Z,1395172771,2014,20,0,77.833,77.833,73.46393,-136.96627,1005.59,-999.00,-999.0,yes,no,no,169312003533407,WB,BAS,APL_Sachs_Harbor,North
2014-03-18T21:00:00Z,1395176400,2014,21,0,77.875,77.875,73.46443,-136.98362,1006.92,-999.00,-999.0,yes,no,no,169312003533407,WB,BAS,APL_Sachs_Harbor,North
2014-03-18T22:01:55Z,1395180115,2014,22,2,77.918,77.918,73.46463,-136.99965,1008.12,-999.00,-999.0,yes,no,no,169312003533407,WB,BAS,APL_Sachs_Harbor,North
2014-03-18T22:59:31Z,1395183571,2014,23,0,77.958,77.958,73.46555,-137.02425,1010.66,-999.00,-999.0,yes,no,no,169312003533407,WB,BAS,APL_Sachs_Harbor,North
2014-03-19T00:00:00Z,1395187200,2014,0,0,78.0,78.0,73.46593,-137.03652,1008.12,-999.00,-999.0,yes,no,no,169312003533407,WB,BAS,APL_Sachs_Harbor,North
2014-03-19T01:00:28Z,1395190829,2014,1,0,78.042,78.042,73.46715,-137.05657,1008.12,-999.00,-999.0,yes,no,no,169312003533407,WB,BAS,APL_Sachs_Harbor,North
2014-03-19T01:59:31Z,1395194371,2014,2,0,78.083,78.083,73.4687,-137.07323,1010.66,-999.00,-999.0,yes,no,no,169312003533407,WB,BAS,APL_Sachs_Harbor,North
2014-03-19T03:00:00Z,1395198000,2014,3,0,78.125,78.125,73.46877,-137.0878,1008.12,-999.00,-999.0,yes,no,no,169312003533407,WB,BAS,APL_Sachs_Harbor,North
2014-03-19T04:00:28Z,1395201629,2014,4,0,78.167,78.167,73.47067,-137.10002,1010.65,-999.00,-999.0,yes,no,no,169312003533407,WB,BAS,APL_Sachs_Harbor,North
2014-03-19T04:59:31Z,1395205171,2014,5,0,78.208,78.208,73.47133,-137.10968,1011.98,-999.00,-999.0,yes,no,no,169312003533407,WB,BAS,APL_Sachs_Harbor,North
2014-03-19T06:00:00Z,1395208800,2014,6,0,78.25,78.25,73.47225,-137.12215,1014.51,-999.00,-999.0,yes,no,no,169312003533407,WB,BAS,APL_Sachs_Harbor,North
2014-03-19T07:00:28Z,1395212429,2014,7,0,78.292,78.292,73.47307,-137.13462,1014.51,-999.00,-999.0,yes,no,no,169312003533407,WB,BAS,APL_Sachs_Harbor,North
2014-03-19T07:59:31Z,1395215971,2014,8,0,78.333,78.333,73.47363,-137.14422,1013.31,-999.00,-999.0,yes,no,no,169312003533407,WB,BAS,APL_Sachs_Harbor,North
2014-03-19T09:00:00Z,1395219600,2014,9,0,78.375,78.375,73.4744,-137.15507,1014.51,-999.00,-999.0,yes,no,no,169312003533407,WB,BAS,APL_Sachs_Harbor,North
2014-03-19T10:00:28Z,1395223229,2014,10,0,78.417,78.417,73.47493,-137.16322,1020.91,-999.00,-999.0,yes,no,no,169312003533407,WB,BAS,APL_Sachs_Harbor,North
2014-03-19T10:59:31Z,1395226771,2014,11,0,78.458,78.458,73.47557,-137.17208,1017.05,-999.00,-999.0,yes,no,no,169312003533407,WB,BAS,APL_Sachs_Harbor,North
2014-03-19T12:00:00Z,1395230400,2014,12,0,78.5,78.5,73.47618,-137.17895,1017.05,-999.00,-999.0,yes,no,no,169312003533407,WB,BAS,APL_Sachs_Harbor,North
2014-03-19T13:00:28Z,1395234029,2014,13,0,78.542,78.542,73.47668,-137.19013,1017.05,-999.00,-999.0,yes,no,no,169312003533407,WB,BAS,APL_Sachs_Harbor,North
2014-03-19T13:59:31Z,1395237571,2014,14,0,78.583,78.583,73.47698,-137.19487,1018.38,-999.00,-999.0,yes,no,no,169312003533407,WB,BAS,APL_Sachs_Harbor,North
2014-03-19T15:00:00Z,1395241200,2014,15,0,78.625,78.625,73.4778,-137.20438,1017.05,-999.00,-999.0,yes,no,no,169312003533407,WB,BAS,APL_Sachs_Harbor,North
2014-03-19T16:00:28Z,1395244829,2014,16,0,78.667,78.667,73.47793,-137.2089,1019.58,-999.00,-999.0,yes,no,no,169312003533407,WB,BAS,APL_Sachs_Harbor,North
2014-03-19T18:00:00Z,1395252000,2014,18,0,78.75,78.75,73.47888,-137.22143,1015.86,-999.00,-999.0,yes,no,no,169312003533407,WB,BAS,APL_Sachs_Harbor,North
2014-03-19T19:00:28Z,1395255629,2014,19,0,78.792,78.792,73.47912,-137.22423,1019.59,-999.00,-999.0,yes,no,no,169312003533407,WB,BAS,APL_Sachs_Harbor,North
2014-03-19T19:59:31Z,1395259171,2014,20,0,78.833,78.833,73.4797,-137.23017,1020.92,-999.00,-999.0,yes,no,no,169312003533407,WB,BAS,APL_Sachs_Harbor,North
2014-03-19T21:00:00Z,1395262800,2014,21,0,78.875,78.875,73.48008,-137.23315,1022.25,-999.00,-999.0,yes,no,no,169312003533407,WB,BAS,APL_Sachs_Harbor,North
2014-03-19T22:00:28Z,1395266429,2014,22,0,78.917,78.917,73.48048,-137.23623,1023.45,-999.00,-999.0,yes,no,no,169312003533407,WB,BAS,APL_Sachs_Harbor,North
2014-03-19T22:59:31Z,1395269971,2014,23,0,78.958,78.958,73.48083,-137.23917,1024.79,-999.00,-999.0,yes,no,no,169312003533407,WB,BAS,APL_Sachs_Harbor,North
2014-03-20T00:00:00Z,1395273600,2014,0,0,79.0,79.0,73.48107,-137.24148,1024.79,-999.00,-999.0,yes,no,no,169312003533407,WB,BAS,APL_Sachs_Harbor,North
2014-03-20T01:00:28Z,1395277229,2014,1,0,79.042,79.042,73.48105,-137.24215,1023.45,-999.00,-999.0,yes,no,no,169312003533407,WB,BAS,APL_Sachs_Harbor,North
2014-03-20T01:59:31Z,1395280771,2014,2,0,79.083,79.083,73.48087,-137.24227,1024.79,-999.00,-999.0,yes,no,no,169312003533407,WB,BAS,APL_Sachs_Harbor,North
2014-03-20T03:00:00Z,1395284400,2014,3,0,79.125,79.125,73.48063,-137.2421,1025.98,-999.00,-999.0,yes,no,no,169312003533407,WB,BAS,APL_Sachs_Harbor,North
2014-03-20T04:00:28Z,1395288029,2014,4,0,79.167,79.167,73.48007,-137.24097,1031.18,-999.00,-999.0,yes,no,no,169312003533407,WB,BAS,APL_Sachs_Harbor,North
2014-03-20T04:59:31Z,1395291571,2014,5,0,79.208,79.208,73.48007,-137.24097,1025.98,-999.00,-999.0,yes,no,no,169312003533407,WB,BAS,APL_Sachs_Harbor,North
2014-03-20T06:00:00Z,1395295200,2014,6,0,79.25,79.25,73.4794,-137.23728,1028.51,-999.00,-999.0,yes,no,no,169312003533407,WB,BAS,APL_Sachs_Harbor,North
2014-03-20T07:00:28Z,1395298829,2014,7,0,79.292,79.292,73.47908,-137.23427,1027.31,-999.00,-999.0,yes,no,no,169312003533407,WB,BAS,APL_Sachs_Harbor,North
2014-03-20T07:59:31Z,1395302371,2014,8,0,79.333,79.333,73.47885,-137.23203,1027.31,-999.00,-999.0,yes,no,no,169312003533407,WB,BAS,APL_Sachs_Harbor,North
2014-03-20T09:00:00Z,1395306000,2014,9,0,79.375,79.375,73.47885,-137.23203,1023.45,-999.00,-999.0,yes,no,no,169312003533407,WB,BAS,APL_Sachs_Harbor,North
2014-03-20T10:00:28Z,1395309629,2014,10,0,79.417,79.417,73.47785,-137.22398,1028.51,-999.00,-999.0,yes,no,no,169312003533407,WB,BAS,APL_Sachs_Harbor,North
2014-03-20T10:59:31Z,1395313171,2014,11,0,79.458,79.458,73.47738,-137.2199,1029.84,-999.00,-999.0,yes,no,no,169312003533407,WB,BAS,APL_Sachs_Harbor,North
2014-03-20T12:00:00Z,1395316800,2014,12,0,79.5,79.5,73.47708,-137.21735,1027.31,-999.00,-999.0,yes,no,no,169312003533407,WB,BAS,APL_Sachs_Harbor,North
2014-03-20T13:00:28Z,1395320429,2014,13,0,79.542,79.542,73.4766,-137.21117,1029.84,-999.00,-999.0,yes,no,no,169312003533407,WB,BAS,APL_Sachs_Harbor,North
2014-03-20T13:59:31Z,1395323971,2014,14,0,79.583,79.583,73.47655,-137.20923,1028.51,-999.00,-999.0,yes,no,no,169312003533407,WB,BAS,APL_Sachs_Harbor,North
2014-03-20T15:00:00Z,1395327600,2014,15,0,79.625,79.625,73.47617,-137.2016,1027.31,-999.00,-999.0,yes,no,no,169312003533407,WB,BAS,APL_Sachs_Harbor,North
2014-03-20T16:00:28Z,1395331229,2014,16,0,79.667,79.667,73.47642,-137.19492,1027.31,-999.00,-999.0,yes,no,no,169312003533407,WB,BAS,APL_Sachs_Harbor,North
2014-03-20T16:59:31Z,1395334771,2014,17,0,79.708,79.708,73.47633,-137.19043,1025.98,-999.00,-999.0,yes,no,no,169312003533407,WB,BAS,APL_Sachs_Harbor,North
2014-03-20T18:00:00Z,1395338400,2014,18,0,79.75,79.75,73.47733,-137.17683,1025.98,-999.00,-999.0,yes,no,no,169312003533407,WB,BAS,APL_Sachs_Harbor,North
2014-03-20T19:00:28Z,1395342029,2014,19,0,79.792,79.792,73.47805,-137.1666,1022.25,-999.00,-999.0,yes,no,no,169312003533407,WB,BAS,APL_Sachs_Harbor,North
2014-03-20T19:59:31Z,1395345571,2014,20,0,79.833,79.833,73.47925,-137.14875,1020.92,-999.00,-999.0,yes,no,no,169312003533407,WB,BAS,APL_Sachs_Harbor,North
2014-03-20T21:00:00Z,1395349200,2014,21,0,79.875,79.875,73.48027,-137.13147,1023.46,-999.00,-999.0,yes,no,no,169312003533407,WB,BAS,APL_Sachs_Harbor,North
2014-03-20T22:00:28Z,1395352829,2014,22,0,79.917,79.917,73.48085,-137.11348,1024.79,-999.00,-999.0,yes,no,no,169312003533407,WB,BAS,APL_Sachs_Harbor,North
2014-03-20T22:59:31Z,1395356371,2014,23,0,79.958,79.958,73.48102,-137.09468,1024.79,-999.00,-999.0,yes,no,no,169312003533407,WB,BAS,APL_Sachs_Harbor,North
2014-03-21T00:00:00Z,1395360000,2014,0,0,80.0,80.0,73.48088,-137.07647,1023.45,-999.00,-999.0,yes,no,no,169312003533407,WB,BAS,APL_Sachs_Harbor,North
2014-03-21T01:00:28Z,1395363629,2014,1,0,80.042,80.042,73.47915,-137.05598,1025.99,-999.00,-999.0,yes,no,no,169312003533407,WB,BAS,APL_Sachs_Harbor,North
2014-03-21T01:59:31Z,1395367171,2014,2,0,80.083,80.083,73.478,-137.0385,1031.18,-999.00,-999.0,yes,no,no,169312003533407,WB,BAS,APL_Sachs_Harbor,North
2014-03-21T03:00:00Z,1395370800,2014,3,0,80.125,80.125,73.47713,-137.02785,1024.78,-999.00,-999.0,yes,no,no,169312003533407,WB,BAS,APL_Sachs_Harbor,North
2014-03-21T04:00:28Z,1395374429,2014,4,0,80.167,80.167,73.4761,-137.01505,1023.45,-999.00,-999.0,yes,no,no,169312003533407,WB,BAS,APL_Sachs_Harbor,North
2014-03-21T04:59:31Z,1395377971,2014,5,0,80.208,80.208,73.47453,-137.00453,1023.45,-999.00,-999.0,yes,no,no,169312003533407,WB,BAS,APL_Sachs_Harbor,North
2014-03-21T06:00:00Z,1395381600,2014,6,0,80.25,80.25,73.47335,-136.99505,1023.45,-999.00,-999.0,yes,no,no,169312003533407,WB,BAS,APL_Sachs_Harbor,North
2014-03-21T07:00:28Z,1395385229,2014,7,0,80.292,80.292,73.47337,-136.98713,1022.25,-999.00,-999.0,yes,no,no,169312003533407,WB,BAS,APL_Sachs_Harbor,North
2014-03-21T07:59:31Z,1395388771,2014,8,0,80.333,80.333,73.47305,-136.97992,1022.25,-999.00,-999.0,yes,no,no,169312003533407,WB,BAS,APL_Sachs_Harbor,North
2014-03-21T09:00:00Z,1395392400,2014,9,0,80.375,80.375,73.47323,-136.97202,1024.78,-999.00,-999.0,yes,no,no,169312003533407,WB,BAS,APL_Sachs_Harbor,North
2014-03-21T10:00:28Z,1395396029,2014,10,0,80.417,80.417,73.47325,-136.9611,1022.25,-999.00,-999.0,yes,no,no,169312003533407,WB,BAS,APL_Sachs_Harbor,North
2014-03-21T10:59:31Z,1395399571,2014,11,0,80.458,80.458,73.47343,-136.95302,1020.91,-999.00,-999.0,yes,no,no,169312003533407,WB,BAS,APL_Sachs_Harbor,North
2014-03-21T12:00:00Z,1395403200,2014,12,0,80.5,80.5,73.4735,-136.94117,1020.91,-999.00,-999.0,yes,no,no,169312003533407,WB,BAS,APL_Sachs_Harbor,North
2014-03-21T13:00:28Z,1395406829,2014,13,0,80.542,80.542,73.47367,-136.92795,1019.58,-999.00,-999.0,yes,no,no,169312003533407,WB,BAS,APL_Sachs_Harbor,North
2014-03-21T13:59:31Z,1395410371,2014,14,0,80.583,80.583,73.47387,-136.9116,1015.85,-999.00,-999.0,yes,no,no,169312003533407,WB,BAS,APL_Sachs_Harbor,North
2014-03-21T15:00:00Z,1395414000,2014,15,0,80.625,80.625,73.47482,-136.8941,1018.38,-999.00,-999.0,yes,no,no,169312003533407,WB,BAS,APL_Sachs_Harbor,North
2014-03-21T16:00:28Z,1395417629,2014,16,0,80.667,80.667,73.4758,-136.87968,1023.45,-999.00,-999.0,yes,no,no,169312003533407,WB,BAS,APL_Sachs_Harbor,North
2014-03-21T16:59:31Z,1395421171,2014,17,0,80.708,80.708,73.47737,-136.86163,1014.51,-999.00,-999.0,yes,no,no,169312003533407,WB,BAS,APL_Sachs_Harbor,North
2014-03-21T18:00:00Z,1395424800,2014,18,0,80.75,80.75,73.47917,-136.84228,1013.31,-999.00,-999.0,yes,no,no,169312003533407,WB,BAS,APL_Sachs_Harbor,North
2014-03-21T19:00:28Z,1395428429,2014,19,0,80.792,80.792,73.48038,-136.82638,1013.32,-999.00,-999.0,yes,no,no,169312003533407,WB,BAS,APL_Sachs_Harbor,North
2014-03-21T19:59:31Z,1395431971,2014,20,0,80.833,80.833,73.48098,-136.79947,1009.45,-999.00,-999.0,yes,no,no,169312003533407,WB,BAS,APL_Sachs_Harbor,North
2014-03-21T21:00:00Z,1395435600,2014,21,0,80.875,80.875,73.48057,-136.77303,1013.32,-999.00,-999.0,yes,no,no,169312003533407,WB,BAS,APL_Sachs_Harbor,North
2014-03-21T22:00:28Z,1395439229,2014,22,0,80.917,80.917,73.47827,-136.7469,1010.65,-999.00,-999.0,yes,no,no,169312003533407,WB,BAS,APL_Sachs_Harbor,North
2014-03-21T22:59:31Z,1395442771,2014,23,0,80.958,80.958,73.4755,-136.7283,1010.65,-999.00,-999.0,yes,no,no,169312003533407,WB,BAS,APL_Sachs_Harbor,North
2014-03-22T00:00:00Z,1395446400,2014,0,0,81.0,81.0,73.4706,-136.70927,1011.98,-999.00,-999.0,yes,no,no,169312003533407,WB,BAS,APL_Sachs_Harbor,North
2014-03-22T01:00:28Z,1395450029,2014,1,0,81.042,81.042,73.4644,-136.69413,1014.52,-999.00,-999.0,yes,no,no,169312003533407,WB,BAS,APL_Sachs_Harbor,North
2014-03-22T01:59:31Z,1395453571,2014,2,0,81.083,81.083,73.45673,-136.68182,1010.65,-999.00,-999.0,yes,no,no,169312003533407,WB,BAS,APL_Sachs_Harbor,North
2014-03-22T03:00:00Z,1395457200,2014,3,0,81.125,81.125,73.45137,-136.67722,1011.98,-999.00,-999.0,yes,no,no,169312003533407,WB,BAS,APL_Sachs_Harbor,North
2014-03-22T04:00:28Z,1395460829,2014,4,0,81.167,81.167,73.44302,-136.67273,1013.31,-999.00,-999.0,yes,no,no,169312003533407,WB,BAS,APL_Sachs_Harbor,North
2014-03-22T04:59:31Z,1395464371,2014,5,0,81.208,81.208,73.43743,-136.67155,1010.65,-999.00,-999.0,yes,no,no,169312003533407,WB,BAS,APL_Sachs_Harbor,North
2014-03-22T06:00:00Z,1395468000,2014,6,0,81.25,81.25,73.43135,-136.67227,1011.98,-999.00,-999.0,yes,no,no,169312003533407,WB,BAS,APL_Sachs_Harbor,North
2014-03-22T07:00:28Z,1395471629,2014,7,0,81.292,81.292,73.42605,-136.678,1014.51,-999.00,-999.0,yes,no,no,169312003533407,WB,BAS,APL_Sachs_Harbor,North
2014-03-22T07:59:31Z,1395475171,2014,8,0,81.333,81.333,73.42193,-136.68495,1015.85,-999.00,-999.0,yes,no,no,169312003533407,WB,BAS,APL_Sachs_Harbor,North
2014-03-22T09:00:00Z,1395478800,2014,9,0,81.375,81.375,73.41935,-136.69077,1017.05,-999.00,-999.0,yes,no,no,169312003533407,WB,BAS,APL_Sachs_Harbor,North
2014-03-22T10:00:28Z,1395482429,2014,10,0,81.417,81.417,73.41682,-136.69792,1018.38,-999.00,-999.0,yes,no,no,169312003533407,WB,BAS,APL_Sachs_Harbor,North
2014-03-22T10:59:31Z,1395485971,2014,11,0,81.458,81.458,73.4147,-136.702,1018.38,-999.00,-999.0,yes,no,no,169312003533407,WB,BAS,APL_Sachs_Harbor,North
2014-03-22T12:00:00Z,1395489600,2014,12,0,81.5,81.5,73.412,-136.70502,1018.38,-999.00,-999.0,yes,no,no,169312003533407,WB,BAS,APL_Sachs_Harbor,North
2014-03-22T13:00:28Z,1395493229,2014,13,0,81.542,81.542,73.40918,-136.70708,1013.31,-999.00,-999.0,yes,no,no,169312003533407,WB,BAS,APL_Sachs_Harbor,North
2014-03-22T13:59:31Z,1395496771,2014,14,0,81.583,81.583,73.40502,-136.71137,1019.58,-999.00,-999.0,yes,no,no,169312003533407,WB,BAS,APL_Sachs_Harbor,North
2014-03-22T15:00:00Z,1395500400,2014,15,0,81.625,81.625,73.40162,-136.71947,1019.58,-999.00,-999.0,yes,no,no,169312003533407,WB,BAS,APL_Sachs_Harbor,North
2014-03-22T16:00:28Z,1395504029,2014,16,0,81.667,81.667,73.39892,-136.72883,1019.58,-999.00,-999.0,yes,no,no,169312003533407,WB,BAS,APL_Sachs_Harbor,North
2014-03-22T16:59:31Z,1395507571,2014,17,0,81.708,81.708,73.39702,-136.73705,1022.25,-999.00,-999.0,yes,no,no,169312003533407,WB,BAS,APL_Sachs_Harbor,North
2014-03-22T18:00:00Z,1395511200,2014,18,0,81.75,81.75,73.39528,-136.7449,1020.92,-999.00,-999.0,yes,no,no,169312003533407,WB,BAS,APL_Sachs_Harbor,North
2014-03-22T19:00:28Z,1395514829,2014,19,0,81.792,81.792,73.3942,-136.74842,1022.26,-999.00,-999.0,yes,no,no,169312003533407,WB,BAS,APL_Sachs_Harbor,North
2014-03-22T19:59:31Z,1395518371,2014,20,0,81.833,81.833,73.39257,-136.75482,1022.26,-999.00,-999.0,yes,no,no,169312003533407,WB,BAS,APL_Sachs_Harbor,North
2014-03-22T21:01:26Z,1395522086,2014,21,2,81.876,81.876,73.39257,-136.75482,1018.39,-999.00,-999.0,yes,no,no,169312003533407,WB,BAS,APL_Sachs_Harbor,North
2014-03-22T22:00:28Z,1395525629,2014,22,0,81.917,81.917,73.39105,-136.75767,1027.32,-999.00,-999.0,yes,no,no,169312003533407,WB,BAS,APL_Sachs_Harbor,North
2014-03-22T22:59:31Z,1395529171,2014,23,0,81.958,81.958,73.39003,-136.75788,1027.32,-999.00,-999.0,yes,no,no,169312003533407,WB,BAS,APL_Sachs_Harbor,North
2014-03-23T00:00:00Z,1395532800,2014,0,0,82.0,82.0,73.38848,-136.75808,1028.52,-999.00,-999.0,yes,no,no,169312003533407,WB,BAS,APL_Sachs_Harbor,North
2014-03-23T01:00:28Z,1395536429,2014,1,0,82.042,82.042,73.3875,-136.75808,1028.52,-999.00,-999.0,yes,no,no,169312003533407,WB,BAS,APL_Sachs_Harbor,North
2014-03-23T01:59:31Z,1395539971,2014,2,0,82.083,82.083,73.38577,-136.75868,1029.85,-999.00,-999.0,yes,no,no,169312003533407,WB,BAS,APL_Sachs_Harbor,North
2014-03-23T03:00:00Z,1395543600,2014,3,0,82.125,82.125,73.38452,-136.75982,1028.52,-999.00,-999.0,yes,no,no,169312003533407,WB,BAS,APL_Sachs_Harbor,North
2014-03-23T04:00:28Z,1395547229,2014,4,0,82.167,82.167,73.38373,-136.76125,1029.85,-999.00,-999.0,yes,no,no,169312003533407,WB,BAS,APL_Sachs_Harbor,North
2014-03-23T04:59:31Z,1395550771,2014,5,0,82.208,82.208,73.38322,-136.76248,1028.51,-999.00,-999.0,yes,no,no,169312003533407,WB,BAS,APL_Sachs_Harbor,North